Regional Weather Roundup
Issued by NWS

Home | Current Version | Previous Version | Graphics & Text | Print | Product List | Glossary On
Versions: 1 2 3 4 5 6 7 8 9 10 11 12 13 14 15 16 17 18 19 20 21 22 23 24 25 26 27 28 29 30 31 32 33 34 35 36 37 38 39 40 41 42 43 44 45 46 47 48 49 50
000
ASUS43 KMKX 201111
RWRWI

WISCONSIN REGIONAL WEATHER ROUNDUP
NATIONAL WEATHER SERVICE MILWAUKEE/SULLIVAN WI
500 AM CST SAT DEC 20 2014

NOTE: "FAIR" INDICATES FEW OR NO CLOUDS BELOW 12,000 FEET WITH NO
SIGNIFICANT WEATHER AND/OR OBSTRUCTIONS TO VISIBILITY.

WIZ001-002-006>008-014>016-023>028-201200-
NORTHWEST WISCONSIN

CITY           SKY/WX    TMP DP  RH WIND       PRES   REMARKS
SUPERIOR ARPT  CLOUDY    28  25  88 S3        30.17R
ASHLAND        CLOUDY    27  23  85 CALM      30.19F
HAYWARD        CLOUDY    26  21  81 S8        30.16S WCI  18
SIREN          CLOUDY    28  24  84 S7        30.15S WCI  21
CUMBERLAND     CLOUDY    27  23  86 S9        30.15F WCI  17
RICE LAKE      CLOUDY    27  23  85 SE7       30.18F WCI  20
CHETEK         CLOUDY    27  23  87 SE6       30.18F WCI  20
LADYSMITH      CLOUDY    27  23  87 S5        30.20S WCI  21
EAU CLAIRE     CLOUDY    28  21  75 S7        30.20S WCI  21
MENOMONIE      CLOUDY    29  24  81 SE5       30.20S WCI  24
NEW RICHMOND   CLOUDY    28  26  90 S9        30.16F WCI  19
OSCEOLA        CLOUDY    29  26  87 S9        30.18F WCI  21
$$

WIZ003>005-009-010-017-018-201200-
NORTH CENTRAL WISCONSIN

CITY           SKY/WX    TMP DP  RH WIND       PRES   REMARKS
MANITOWISH WTR CLOUDY    22  22 100 S3        30.16S
ARBOR VITAE    CLOUDY    23  22  93 S5        30.17S FOG     WCI  17
WOODRUFF       CLOUDY    23  22  93 S5        30.17S FOG     WCI  17
RHINELANDER    CLOUDY    21  20  96 S3        30.18S FOG
EAGLE RIVER    CLOUDY    21  20  98 CALM      30.17S FOG
LAND O LAKES   CLOUDY    21  20  95 CALM      30.18S
PHILLIPS       CLOUDY    23  22  95 S6        30.17S WCI  16
TOMAHAWK       CLOUDY    23  21  94 CALM      30.19F FOG
MEDFORD        CLOUDY    23  22  95 SE5       30.18F WCI  17
MERRILL        CLOUDY    24  23  96 CALM      30.20F FOG
$$

WIZ029-030-035-036-043>047-201200-
CENTRAL WISCONSIN

CITY           SKY/WX    TMP DP  RH WIND       PRES   REMARKS
WAUSAU         CLOUDY    24  21  88 S6        30.21S WCI  17
MOSINEE        CLOUDY    23  23 100 S5        30.23S FOG     WCI  17
MARSHFIELD     CLOUDY    25  22  88 S7        30.21S FOG     WCI  17
STEVENS POINT  CLOUDY    23  20  89 CALM      30.24S
WAUPACA        CLOUDY    27  22  84 CALM      30.26S
WAUTOMA        CLOUDY    26  23  88 CALM      30.26S
WISC RAPIDS    CLOUDY    24  21  88 CALM      30.25S FOG
CAMP DOUGLAS   MIX PCPN  26  26 100 E5        30.23S WCI  20
$$

WIZ011>013-019>022-031-037>040-048>050-201200-
NORTHEAST WISCONSIN

CITY           SKY/WX    TMP DP  RH WIND       PRES   REMARKS
ANTIGO         CLOUDY    21  20  96 S3        30.20S
SHAWANO        CLOUDY    21  19  89 CALM      30.27S
OCONTO         MOCLDY    15  15  97 CALM      30.28S
STURGEON BAY   CLOUDY    25  19  80 CALM      30.28S
GREEN BAY      MOCLDY    21  19  92 CALM      30.28R
MANITOWOC      CLOUDY    27  23  85 CALM      30.28R
APPLETON       NOT AVBL
CLINTONVILLE   CLOUDY    23  21  93 CALM      30.26S
OSHKOSH        CLOUDY    23  19  85 CALM      30.26S
$$

WIZ032>034-041-042-053>061-201200-
SOUTHWEST WISCONSIN

CITY           SKY/WX    TMP DP  RH WIND       PRES   REMARKS
LA CROSSE      CLOUDY    30  23  75 S8        30.22F WCI  22
SPARTA         CLOUDY    28  23  81 S3        30.23F
VIROQUA        CLOUDY    26  25  94 S6        30.20S WCI  20
BOSCOBEL       CLOUDY    29  24  82 CALM      30.25F
PRAIRIE DU CHI CLOUDY    28  24  85 E6        30.24S WCI  22
PLATTEVILLE    CLOUDY    28  26  93 CALM      30.24S
$$

WIZ056-057-062-063-064-067-068-201200-
SOUTH CENTRAL WISCONSIN

CITY           SKY/WX    TMP DP  RH WIND       PRES   REMARKS
REEDSBURG      LGT SNOW  26  23  90 CALM      30.24S
BARABOO/DELLS  LGT SNOW  25  23  89 S5        30.24S WCI  20
LONE ROCK      CLOUDY    30  23  75 E5        30.26S WCI  25
MINERAL POINT  CLOUDY    28  27  93 CALM      30.23R FOG
MADISON        CLOUDY    27  22  81 CALM      30.25S
MIDDLETON      CLOUDY    28  24  86 CALM      30.25S
WATERTOWN      CLOUDY    25  23  94 CALM      30.25F
MONROE         CLOUDY    27  27 100 CALM      30.23S FOG
JANESVILLE     LGT SNOW  28  27  93 CALM      30.25F
$$

WIZ051-052-058>065-066-070>072-201200-
SOUTHEAST WISCONSIN

CITY           SKY/WX    TMP DP  RH WIND       PRES   REMARKS
MILWAUKEE      CLOUDY    27  19  72 W6        30.27S WCI  20
WAUKESHA       CLOUDY    25  19  80 CALM      30.26F
MILWAUKEE/TIMM CLOUDY    27  19  74 W3        30.27S
RACINE         CLOUDY    27  19  72 W6        30.29S WCI  20
BURLINGTON     CLOUDY    24  20  85 CALM      30.26S
KENOSHA        CLOUDY    27  21  78 NW6       30.27S WCI  20
FOND DU LAC    CLOUDY    22  18  85 CALM      30.26S
SHEBOYGAN      CLOUDY    27  20  75 NW6       30.26S WCI  20
WEST BEND      CLOUDY    27  19  74 CALM      30.25S
JUNEAU         CLOUDY    24  21  89 CALM      30.27R
$$

LSZ147-162-201200-
LAKE SUPERIOR

STATION/POSITION TIME  TEMP    WIND        PRES    WAVE
                       AIR SEA DIR/SP/G            HT/PER
                 (UTC) (F)     (DEG/KT/KT) (MB)    (FT/S)
DEVILS ISLAND    1100   29     200/  7/  9 1023.1S
PORT WING        1040   28     180/  8/ 11 1022.0S
SAXON HARBOR     1000   27     190/  2/  7 1022.7
$$

LMZ867-665-643>646-201200-
LAKE MICHIGAN

STATION/POSITION TIME  TEMP    WIND        PRES    WAVE
                       AIR SEA DIR/SP/G            HT/PER
                 (UTC) (F)     (DEG/KT/KT) (MB)    (FT/S)
CHAMBERS ISLAND  1000   18        CALM     1025.1S
NORTHPORT PIER   1027   23     240/  2/  4 1025.1S
SISTER BAY       0943             CALM       N/A
ALGOMA LAKESHORE 0914          330/  6/  7   N/A
KEWAUNEE LAKESHO 1000   27     330/  1/  5 1023.9S
SHEBOYGAN LAKESH 1100   28 34  310/  5/  6 1026.0F
PORT WASHINGTON  1000   28     270/  3/  4 1025.7F
MILWAUKEE LAKESH 1000   28     270/  6/  8   N/A
KENOSHA   LAKESH 1100   27     290/  6/  8 1025.1S
$$

TC  - TEMPERATURE IN CELSIUS
VSB - VISIBILITY IN STATUTE MILES
WCI - WIND CHILL INDEX
HX  - HEAT INDEX



USA.gov is the U.S. government's official web portal to all federal, state and local government web resources and services.